Wind_Speed
14 13 10 7 5 4 2 1 2 4 5 7 8 9 10 10 10 11 12 12 12 12 12 12 12 11 11 11 11 11 11 11 10 10 10 9 8 8 8 8 8 8 7 7
15 13 10 9 9 8 6 3 1 2 2 4 7 7 8 8 9 9 10 10 10 10 10 11 11 11 11 11 10 10 10 10 9 9 9 9 9 8 7 7 7 8 8 7
17 14 13 11 11 11 9 7 3 2 1 3 5 5 5 7 7 8 8 9 9 9 9 9 9 10 10 10 10 10 10 9 9 9 9 9 9 8 8 7 7 7 7 7
19 17 16 14 12 12 12 10 7 5 4 4 5 5 3 4 5 6 6 7 8 8 8 9 9 9 9 9 9 9 9 9 9 8 8 8 8 8 7 7 7 7 7 6
20 19 18 16 14 14 14 13 12 11 9 7 7 7 4 3 5 5 4 5 6 6 7 7 7 7 8 8 8 8 9 8 8 8 8 8 8 8 7 7 7 7 7 6
21 21 21 18 17 17 17 16 15 14 12 10 8 9 6 4 4 5 4 4 3 4 4 5 6 6 6 6 7 7 7 7 7 7 7 8 8 8 7 7 7 7 7 7
22 23 22 20 19 19 18 18 17 17 15 12 11 11 8 5 5 6 5 4 3 2 3 4 5 5 5 5 6 6 6 7 7 7 7 7 7 8 7 8 7 7 7 7
23 23 23 21 19 19 18 19 18 17 15 13 14 14 9 6 6 6 5 4 4 3 2 3 4 4 5 6 7 6 6 6 7 7 7 6 7 8 7 8 8 8 7 7
23 23 23 23 21 20 20 19 18 18 17 17 16 14 11 8 7 7 5 5 5 4 2 3 3 4 5 6 6 7 7 7 7 7 7 6 7 8 7 9 9 9 8 7
22 23 24 23 23 23 23 20 18 20 20 19 17 16 13 11 8 8 7 5 4 3 4 3 4 4 5 5 6 7 8 8 8 9 9 8 7 7 8 9 9 9 9 9
23 24 25 26 25 24 24 22 20 20 19 18 18 17 13 12 9 8 8 7 5 5 4 4 5 5 6 7 7 8 8 9 9 10 10 10 9 9 10 10 10 10 10 10
25 24 25 26 25 25 24 23 22 21 19 17 18 17 14 13 11 10 9 9 8 6 5 5 5 6 7 7 8 9 10 11 11 11 11 11 10 10 11 11 11 11 11 11
24 27 26 26 27 27 26 25 23 22 21 20 18 16 15 14 13 11 10 10 10 9 7 6 7 7 8 8 9 10 11 12 12 12 12 11 11 11 11 12 12 12 11 12
25 27 27 27 26 27 28 26 25 25 25 23 20 18 17 15 14 13 12 11 11 11 10 9 10 10 10 10 11 11 12 12 13 13 12 12 11 11 12 13 13 12 13 13
28 29 29 28 28 27 28 29 28 26 26 25 22 20 18 16 15 14 14 15 14 14 13 12 12 12 12 13 13 13 13 13 13 14 13 12 12 12 13 13 13 13 14 15
31 32 32 31 31 30 29 29 28 27 27 26 24 22 19 19 18 17 17 16 17 17 16 15 15 15 15 14 14 14 14 15 15 15 14 14 14 14 14 14 14 15 16 16
34 34 33 33 33 32 31 30 29 28 27 26 26 24 22 21 21 20 19 19 20 19 17 17 17 17 16 15 15 16 16 16 17 17 16 15 15 15 15 16 17 17 17 18
35 35 34 35 34 35 32 29 30 30 29 27 27 26 24 23 21 21 21 20 21 21 21 20 19 18 17 17 17 17 17 17 17 17 17 16 16 16 16 17 18 19 20 20
36 37 37 37 36 35 33 31 29 30 31 30 29 28 26 24 24 23 23 23 23 22 21 21 20 20 19 19 19 20 19 19 18 17 17 18 18 18 18 19 20 21 21 22
37 39 38 38 38 37 34 32 31 31 32 30 29 28 27 26 26 25 25 24 24 23 22 23 22 21 21 21 21 21 20 20 20 19 20 20 21 21 21 21 22 22 23 23
38 39 39 38 37 36 34 33 32 33 32 30 30 29 29 29 28 27 27 26 25 26 25 24 23 23 22 22 22 21 21 21 21 21 21 22 22 22 23 23 24 25 25 25
37 39 39 38 37 35 32 33 34 35 33 31 31 31 31 30 30 30 29 29 28 27 26 26 25 24 24 24 24 23 22 22 22 22 22 22 23 24 24 25 26 26 26 27
37 39 39 39 37 36 35 34 34 34 34 33 32 32 32 31 32 31 31 29 28 28 28 27 26 25 25 25 25 24 24 24 24 24 24 24 25 25 25 26 26 27 27 28
37 37 38 39 40 38 37 36 36 34 34 34 34 33 32 33 33 32 30 29 29 29 29 28 27 26 26 26 26 25 26 26 26 27 26 26 26 26 27 27 27 27 27 27
39 39 39 38 39 39 38 36 36 37 36 34 33 33 32 32 32 33 32 30 31 31 31 30 28 27 27 27 28 27 27 28 28 28 28 27 27 27 27 27 26 27 27 28
37 39 40 39 38 38 38 36 36 36 36 35 34 34 33 33 33 33 32 31 32 32 31 31 30 30 29 29 29 29 30 30 29 29 29 28 28 27 27 27 27 27 28 29
Wind_Direction
190 188 184 180 181 181 184 114 52 36 38 22 21 24 36 40 44 45 48 47 51 54 56 56 57 59 62 63 63 64 63 62 63 65 64 63 62 61 56 51 46 41 38 40
196 194 193 195 200 196 195 201 190 48 36 355 357 6 22 31 39 45 47 47 48 49 52 54 53 54 58 60 59 59 59 60 62 61 57 56 56 53 49 46 42 39 38 38
204 199 200 202 196 194 198 211 222 268 299 318 321 332 6 25 27 38 45 49 51 49 49 50 49 50 54 57 56 57 57 58 59 59 56 53 50 45 40 36 35 34 30 30
210 207 207 206 201 203 207 216 225 246 255 277 288 305 339 9 15 28 44 45 49 49 47 46 46 45 48 51 51 52 54 55 56 57 52 46 42 38 35 31 27 26 24 25
213 213 213 209 204 208 211 217 225 236 239 249 263 277 293 323 341 10 28 40 46 52 49 41 42 41 42 44 43 43 46 47 49 49 44 37 32 30 26 23 18 16 16 19
215 215 214 212 210 209 209 215 223 235 236 243 248 263 271 285 329 340 350 2 16 45 54 44 38 34 33 34 36 36 35 35 38 39 35 28 23 19 15 14 13 11 11 12
215 214 213 214 215 213 213 216 223 229 234 237 242 253 262 275 311 318 313 316 329 17 40 42 34 29 18 17 19 21 23 21 22 25 25 21 16 11 7 8 7 4 4 3
217 214 213 217 222 218 219 219 226 231 233 242 246 253 257 266 283 300 301 291 293 308 342 11 15 10 8 8 9 9 10 9 7 7 9 7 4 3 5 6 2 357 352 350
219 214 212 217 222 222 220 225 229 233 239 244 244 247 251 255 269 278 279 270 278 295 313 354 355 353 349 353 358 357 359 360 360 359 358 357 356 358 0 359 355 355 347 337
220 218 213 214 218 221 223 227 232 233 235 242 241 246 252 256 258 257 257 261 279 283 306 320 327 332 328 336 342 338 340 344 346 343 343 344 348 345 347 351 351 350 346 340
219 220 214 213 216 221 224 229 231 235 243 247 247 250 250 251 257 263 256 260 264 266 273 288 302 309 314 320 324 326 328 332 333 333 333 335 335 336 338 344 348 346 342 341
223 221 218 214 214 220 225 230 233 238 242 246 253 254 252 252 257 262 258 262 267 265 267 277 294 301 303 305 310 314 317 320 322 324 325 326 327 327 330 334 335 335 334 333
222 222 220 215 215 218 223 227 231 237 239 243 251 254 253 255 254 260 260 260 261 264 263 272 284 292 292 292 298 302 305 309 312 313 314 316 317 319 322 324 325 325 326 326
223 224 225 222 220 220 222 223 227 235 240 244 249 251 249 253 250 254 256 257 256 262 267 274 282 283 281 282 288 294 296 299 303 306 306 308 310 312 314 316 320 320 321 320
225 227 228 227 224 222 223 224 227 232 239 245 248 247 246 250 250 256 256 254 253 259 265 271 277 282 285 286 284 288 293 295 297 300 300 302 305 306 307 308 314 318 319 320
228 229 228 227 225 223 225 227 230 233 236 241 245 245 249 252 252 255 258 260 258 262 265 273 275 280 282 285 283 285 289 293 294 298 298 299 301 302 303 305 307 312 314 315
230 232 229 227 225 223 224 228 231 234 235 239 241 243 245 249 254 254 258 261 262 264 268 273 277 279 278 278 280 283 285 288 291 292 292 294 297 300 302 304 306 308 309 309
231 232 231 230 228 227 226 228 231 233 235 237 240 244 246 247 247 251 257 260 260 266 272 275 276 276 274 275 278 281 283 286 288 286 286 289 294 298 300 301 304 305 305 307
233 231 230 231 230 231 229 228 230 233 235 238 240 242 246 247 248 251 256 258 264 267 270 272 275 275 274 274 276 279 282 284 285 283 284 288 292 295 297 298 301 302 303 306
233 232 232 231 231 233 231 229 230 233 237 239 242 244 247 248 250 253 256 259 261 263 267 271 273 274 274 273 274 276 279 281 283 285 287 288 290 294 296 296 298 300 301 302
230 231 232 233 233 234 232 229 230 233 234 237 241 244 248 250 252 255 256 256 258 262 265 267 270 272 273 274 273 273 275 278 281 282 283 284 288 292 294 294 295 297 299 301
228 231 232 233 233 232 231 231 232 233 236 240 243 245 248 252 254 253 253 254 256 260 264 266 267 269 271 273 273 271 271 274 277 279 281 284 287 290 293 294 294 295 297 300
229 231 234 234 236 234 232 231 232 235 238 240 243 245 247 251 253 253 255 252 253 258 263 265 268 268 270 272 273 272 271 273 275 277 280 283 285 287 290 292 292 294 297 298
230 232 234 236 236 236 235 235 236 238 240 242 241 243 246 249 253 254 254 254 255 259 262 264 266 269 271 272 271 271 274 277 277 275 278 281 283 285 288 290 291 293 295 297
232 232 234 236 238 239 240 240 240 239 241 242 240 240 245 250 253 256 257 258 260 260 261 265 266 268 270 270 270 272 275 277 279 280 279 279 283 284 286 288 290 292 294 297
235 234 235 237 239 240 241 240 240 241 242 242 241 242 245 250 253 256 258 260 262 262 263 264 265 266 269 269 270 271 273 275 278 280 282 284 286 284 285 287 288 291 294 295
Height
5917 5919 5920 5922 5923 5924 5924 5924 5924 5925 5924 5924 5924 5924 5924 5923 5921 5920 5919 5919 5918 5917 5916 5915 5914 5913 5912 5912 5911 5910 5910 5909 5908 5907 5906 5905 5904 5904 5903 5902 5900 5899 5898 5896
5915 5917 5920 5920 5921 5922 5923 5924 5924 5925 5925 5925 5925 5925 5924 5924 5922 5921 5921 5920 5919 5918 5918 5917 5916 5915 5914 5913 5912 5911 5911 5910 5909 5909 5908 5907 5906 5905 5904 5902 5901 5900 5898 5897
5911 5916 5916 5918 5919 5920 5922 5923 5924 5924 5924 5924 5925 5924 5924 5924 5923 5922 5922 5921 5921 5920 5919 5918 5917 5916 5915 5915 5914 5913 5912 5911 5910 5910 5909 5908 5906 5905 5904 5903 5902 5900 5899 5897
5907 5911 5913 5915 5917 5919 5920 5922 5922 5923 5923 5924 5924 5924 5924 5923 5923 5922 5922 5922 5921 5920 5920 5919 5918 5917 5917 5916 5915 5914 5913 5912 5911 5910 5909 5909 5907 5906 5905 5904 5902 5901 5899 5898
5903 5907 5910 5912 5915 5917 5919 5920 5921 5922 5922 5922 5923 5923 5924 5922 5921 5921 5921 5921 5921 5920 5920 5920 5919 5918 5918 5917 5916 5915 5914 5913 5912 5911 5910 5909 5908 5906 5905 5903 5902 5901 5899 5898
5898 5902 5905 5909 5913 5914 5916 5918 5919 5919 5920 5920 5921 5921 5922 5920 5921 5921 5921 5920 5920 5920 5919 5919 5919 5919 5918 5917 5916 5916 5915 5914 5913 5911 5910 5909 5908 5906 5905 5903 5902 5900 5899 5897
5893 5897 5901 5905 5908 5911 5913 5915 5916 5916 5917 5918 5919 5919 5920 5919 5920 5920 5920 5920 5919 5919 5919 5919 5919 5918 5918 5917 5916 5915 5915 5913 5912 5911 5910 5909 5907 5906 5904 5903 5902 5900 5898 5896
5888 5892 5897 5901 5904 5907 5909 5911 5913 5914 5914 5916 5916 5915 5918 5918 5918 5918 5919 5918 5918 5918 5918 5918 5918 5918 5917 5916 5915 5915 5914 5913 5912 5911 5910 5908 5907 5905 5903 5902 5901 5899 5897 5896
5883 5888 5893 5896 5900 5903 5905 5907 5910 5911 5911 5912 5913 5914 5915 5915 5916 5916 5916 5917 5917 5916 5916 5916 5916 5917 5917 5916 5915 5915 5914 5913 5912 5910 5909 5907 5906 5904 5902 5901 5899 5898 5896 5894
5879 5883 5888 5892 5895 5898 5901 5904 5905 5905 5907 5908 5910 5910 5912 5913 5913 5914 5914 5914 5914 5915 5915 5915 5915 5915 5915 5914 5914 5914 5913 5912 5911 5909 5908 5906 5905 5903 5902 5900 5898 5897 5895 5893
5874 5878 5883 5886 5890 5893 5897 5899 5900 5901 5903 5904 5906 5909 5910 5911 5911 5912 5912 5913 5913 5913 5914 5914 5914 5914 5913 5913 5913 5913 5912 5911 5910 5908 5907 5905 5903 5902 5900 5899 5897 5895 5893 5891
5869 5873 5877 5882 5886 5889 5891 5894 5896 5898 5900 5901 5902 5906 5906 5907 5908 5909 5910 5910 5911 5911 5912 5912 5912 5912 5912 5911 5911 5911 5910 5909 5908 5906 5905 5903 5902 5900 5899 5897 5895 5893 5891 5889
5864 5868 5872 5877 5882 5884 5886 5889 5891 5894 5896 5897 5898 5902 5902 5903 5905 5906 5906 5907 5908 5909 5909 5910 5910 5910 5909 5909 5909 5908 5908 5907 5905 5904 5902 5901 5900 5898 5896 5895 5893 5891 5889 5887
5860 5863 5867 5871 5875 5878 5880 5883 5886 5889 5890 5892 5894 5896 5898 5899 5900 5901 5902 5903 5904 5905 5906 5907 5907 5907 5907 5906 5906 5905 5904 5903 5902 5900 5899 5898 5896 5895 5894 5892 5890 5888 5886 5884
5854 5858 5861 5865 5869 5872 5874 5878 5880 5883 5885 5888 5890 5891 5893 5895 5896 5897 5898 5899 5900 5901 5901 5903 5903 5904 5903 5903 5902 5902 5901 5900 5899 5897 5896 5894 5893 5891 5890 5888 5886 5884 5882 5880
5848 5851 5855 5859 5863 5866 5869 5872 5875 5878 5880 5882 5884 5887 5889 5890 5891 5892 5893 5894 5895 5896 5897 5898 5898 5898 5898 5898 5898 5897 5897 5896 5895 5893 5892 5891 5889 5888 5886 5884 5882 5880 5878 5876
5840 5845 5849 5853 5857 5860 5864 5868 5870 5872 5874 5876 5878 5882 5883 5885 5886 5887 5888 5889 5891 5891 5892 5893 5893 5893 5893 5894 5893 5893 5892 5891 5890 5889 5888 5886 5885 5883 5881 5879 5878 5876 5873 5871
5833 5837 5841 5845 5850 5853 5860 5862 5864 5865 5867 5870 5872 5875 5877 5879 5881 5883 5884 5885 5885 5886 5887 5888 5888 5888 5888 5888 5888 5887 5887 5886 5884 5883 5883 5882 5880 5879 5877 5875 5873 5871 5868 5865
5826 5829 5833 5837 5841 5845 5851 5854 5857 5859 5861 5863 5866 5869 5871 5873 5875 5877 5878 5879 5880 5880 5881 5882 5882 5883 5883 5883 5882 5882 5881 5880 5879 5877 5877 5877 5875 5873 5872 5870 5868 5866 5863 5860
5817 5821 5825 5829 5833 5837 5844 5847 5849 5853 5854 5857 5859 5862 5864 5866 5868 5871 5872 5873 5874 5874 5875 5876 5877 5877 5876 5876 5876 5876 5875 5875 5874 5873 5872 5871 5869 5867 5865 5863 5862 5860 5857 5855
5808 5811 5816 5820 5824 5828 5835 5839 5843 5846 5848 5850 5852 5855 5858 5860 5862 5864 5864 5866 5867 5869 5869 5869 5870 5870 5870 5869 5869 5869 5869 5868 5868 5866 5865 5864 5863 5861 5859 5857 5855 5853 5850 5848
5799 5803 5808 5812 5816 5823 5827 5831 5835 5837 5841 5843 5845 5848 5851 5853 5854 5856 5858 5859 5860 5862 5863 5863 5864 5864 5863 5863 5862 5862 5862 5862 5861 5860 5858 5857 5856 5854 5852 5850 5848 5845 5843 5841
5790 5795 5800 5805 5810 5814 5818 5822 5826 5829 5832 5835 5837 5840 5842 5845 5846 5848 5850 5851 5853 5854 5855 5856 5856 5856 5856 5856 5855 5855 5855 5854 5853 5852 5851 5850 5848 5846 5844 5842 5840 5838 5836 5833
5782 5786 5791 5795 5800 5804 5809 5813 5816 5820 5824 5827 5829 5831 5834 5836 5838 5840 5842 5843 5845 5846 5847 5848 5848 5848 5848 5848 5847 5847 5847 5846 5845 5844 5843 5842 5840 5839 5837 5835 5833 5830 5828 5825
5774 5779 5782 5786 5791 5796 5800 5804 5808 5811 5814 5817 5820 5823 5825 5828 5829 5831 5832 5834 5836 5838 5838 5839 5840 5840 5840 5840 5839 5839 5838 5838 5837 5835 5833 5833 5832 5830 5829 5827 5825 5822 5820 5817
5766 5769 5774 5778 5783 5787 5791 5795 5799 5802 5805 5808 5811 5814 5817 5819 5821 5822 5824 5825 5827 5828 5829 5830 5831 5831 5831 5831 5831 5830 5829 5829 5828 5827 5826 5825 5824 5822 5820 5819 5817 5814 5812 5809